Theta_e
334 333 336 331 332 332 334 331 331 330 329 328 325 322 318 316 311 308 307 310 309 311 312 309 310 313 313 316 318 315 314 311 313 317 316 316 314 309 305 305 305 305 304 305 304 303 304 305 306 308 308 308 307 307 307 306 307 308 309 309 309 308 308 309 309 311 310 310 310 310 310 310 310 309
337 336 335 333 332 332 332 332 333 329 329 326 325 322 320 318 313 312 308 309 312 311 314 313 309 311 312 315 317 316 315 311 310 316 316 317 315 305 305 303 302 302 303 303 303 303 303 304 306 308 307 307 306 306 305 305 305 309 309 308 308 308 308 309 310 311 311 310 309 309 310 310 310 310
336 336 335 335 333 334 333 332 331 331 329 326 324 321 321 319 318 315 312 309 314 316 314 315 313 311 312 314 316 315 316 311 311 317 318 317 308 306 306 303 303 304 303 303 303 304 303 304 305 306 307 308 307 306 306 304 306 306 305 306 307 307 308 307 308 311 311 310 310 309 308 309 310 311
335 336 335 334 333 333 331 330 329 327 328 327 322 322 320 319 319 316 314 312 313 318 316 316 314 313 314 314 314 315 314 309 311 318 316 314 305 307 310 303 303 304 303 303 305 308 307 305 305 306 307 307 306 306 304 304 305 305 304 304 304 306 307 307 306 307 309 309 309 308 307 307 308 309
334 335 334 334 335 334 331 329 328 325 326 325 323 322 319 317 320 318 317 313 314 319 321 318 315 314 314 312 314 313 315 314 312 313 317 313 312 312 314 309 304 303 302 303 303 304 304 303 306 303 303 303 304 303 302 304 303 302 302 302 304 305 305 307 307 305 304 306 307 306 306 306 306 308
333 336 334 333 335 334 330 329 324 323 322 321 319 319 319 317 317 320 315 314 314 314 320 318 317 315 315 312 315 315 315 316 314 312 316 317 314 313 316 314 309 301 303 303 302 303 302 303 303 301 301 302 302 303 302 301 301 302 300 299 302 303 304 305 305 304 304 305 305 304 304 305 305 306
326 327 329 332 334 334 333 331 326 324 322 320 317 318 318 318 318 316 317 316 315 315 314 318 316 317 316 316 314 314 316 317 316 314 314 316 316 316 317 317 314 300 303 301 302 303 303 303 302 301 301 301 301 301 301 300 301 300 300 299 302 301 302 301 302 302 304 304 304 304 304 304 305 305
322 324 324 326 332 334 334 332 326 326 324 321 319 319 320 321 318 321 320 319 318 316 314 315 314 316 316 314 316 315 316 316 316 316 316 316 316 316 316 317 317 302 302 301 303 303 303 302 302 301 301 301 301 301 300 300 300 299 299 300 300 300 301 302 301 302 302 302 303 304 303 303 305 307
323 323 324 324 327 330 332 333 329 326 325 321 321 319 318 318 320 321 320 320 318 318 316 316 316 317 316 316 317 317 314 314 316 316 315 315 315 316 316 316 310 302 302 301 302 302 302 301 301 301 301 301 301 300 300 300 300 300 300 299 299 300 300 301 302 301 301 301 301 301 301 301 303 305
324 324 324 327 327 327 326 326 328 327 328 323 322 321 319 319 320 321 321 321 320 318 316 317 316 317 315 316 316 317 317 315 314 314 314 315 316 315 315 316 313 311 308 309 307 303 302 301 301 301 301 300 300 300 300 299 299 299 298 298 299 299 298 299 300 300 299 300 300 300 300 300 302 303
322 323 323 326 327 326 326 327 328 329 329 326 324 322 322 320 320 320 319 318 318 318 318 317 318 317 317 317 314 316 317 316 315 314 313 313 314 315 316 316 316 314 312 308 302 304 306 304 305 301 300 299 300 299 299 299 298 298 297 296 296 296 297 298 298 299 300 300 299 298 297 298 299 301
322 323 323 324 324 324 325 326 327 328 325 324 324 323 323 322 321 320 319 319 318 317 318 315 315 316 316 316 317 317 316 314 313 314 314 313 314 315 316 317 317 315 316 314 311 304 303 303 301 299 300 300 300 299 299 299 299 297 297 297 298 298 298 298 298 299 299 299 299 297 296 297 299 298
322 321 323 323 325 333 319 307 313 315 316 328 321 323 323 323 322 321 320 319 317 317 316 316 317 316 314 315 316 315 314 313 313 316 316 315 315 315 316 317 318 316 315 315 312 310 311 308 307 306 307 304 303 302 302 302 299 298 297 298 298 299 298 298 299 299 299 298 298 297 297 297 297 297
322 321 323 327 314 312 311 308 304 303 305 307 321 327 326 322 321 321 319 318 318 317 315 315 315 314 314 315 316 316 317 318 318 316 316 313 314 315 316 318 318 317 316 314 312 311 312 312 310 310 310 307 308 309 306 307 303 299 297 298 299 297 298 298 297 297 297 297 297 297 297 296 296 297
322 323 321 325 323 321 316 319 299 301 300 301 300 301 303 309 330 323 318 319 320 316 316 316 316 315 315 316 317 317 316 318 317 316 317 316 315 314 312 311 316 318 317 314 313 313 315 314 311 312 312 311 311 311 310 298 298 297 297 297 298 298 298 298 298 297 297 296 296 296 296 296 296 296
322 322 323 324 325 324 329 326 327 314 300 298 299 298 298 299 298 299 320 322 319 319 317 315 316 317 316 316 318 317 318 317 317 317 317 316 315 314 312 313 312 317 317 315 313 313 315 314 313 313 312 312 313 311 301 297 297 297 297 298 297 298 297 297 298 297 297 296 296 296 296 296 296 295
323 325 324 325 325 321 316 317 321 323 326 302 294 299 298 297 297 298 296 297 319 324 320 319 317 318 318 317 317 320 320 322 318 317 315 316 315 315 313 314 314 318 317 315 313 312 314 313 311 311 313 313 313 304 298 297 297 297 297 297 298 297 298 296 297 297 296 296 296 296 296 297 296 296
324 323 323 322 323 326 326 324 324 324 323 327 325 322 322 322 317 298 296 296 295 303 320 321 320 322 323 319 321 322 323 321 319 318 316 318 317 317 316 320 321 318 318 315 314 311 313 312 311 309 312 312 312 312 302 296 297 297 297 298 297 297 296 297 296 296 295 295 295 295 295 295 295 295
328 327 328 327 325 325 325 327 321 326 325 325 325 325 324 324 323 325 325 323 322 321 321 321 322 323 324 326 327 326 327 325 323 322 322 322 321 321 322 320 320 317 316 316 314 308 312 311 308 309 311 312 310 311 298 296 297 297 297 296 297 296 296 296 296 295 295 295 295 295 294 294 294 294
329 329 329 328 328 328 327 306 299 304 318 324 325 323 324 323 324 325 319 315 315 325 329 326 325 327 326 304 328 332 327 325 324 323 323 323 321 319 316 313 315 312 314 314 312 311 310 311 308 308 311 311 309 309 307 297 297 297 297 296 296 296 296 295 295 294 294 294 294 294 294 294 293 293
325 326 321 323 326 327 319 295 294 295 297 323 324 324 324 324 323 322 330 305 298 298 296 294 292 291 293 296 297 299 302 319 320 323 319 317 319 317 313 314 315 313 313 312 314 311 308 312 309 309 310 309 308 308 309 304 297 296 297 296 296 296 295 295 295 294 294 294 294 294 293 294 293 293
321 319 307 316 320 323 317 292 293 291 303 321 324 326 324 325 325 325 328 324 316 295 294 295 294 294 295 294 292 294 296 298 306 321 316 319 319 317 315 312 313 315 313 310 313 310 308 312 310 307 309 308 307 307 307 306 301 296 296 295 295 295 295 294 293 293 294 294 294 294 293 294 294 299
317 319 314 304 307 310 301 291 292 291 300 318 323 322 321 323 319 323 326 326 325 319 316 315 314 310 302 308 314 314 297 296 302 320 320 321 319 315 315 314 313 311 312 312 313 308 309 310 308 307 305 303 306 308 307 306 306 304 304 302 299 295 295 293 293 293 294 295 294 294 294 294 294 300
312 313 316 303 292 292 291 292 290 292 290 306 316 320 321 322 322 325 324 325 325 326 324 323 322 320 321 319 318 320 317 311 312 317 320 320 319 318 316 315 314 311 311 312 311 308 310 310 306 307 305 302 299 304 305 305 305 306 305 304 304 297 294 295 294 293 294 294 294 294 294 294 294 299
309 309 310 313 293 290 290 291 290 291 291 291 305 312 315 320 313 304 319 322 309 321 321 321 321 322 322 322 322 320 321 318 316 315 316 319 319 319 317 314 312 312 312 309 303 310 307 306 305 305 304 303 303 302 304 304 305 304 304 303 302 303 302 303 301 302 295 294 293 293 293 295 293 296
307 308 308 309 297 290 291 291 290 290 291 291 300 307 299 296 295 310 311 316 319 319 318 319 318 319 318 318 318 318 318 317 316 316 316 317 319 320 319 314 311 310 308 306 298 308 306 303 304 303 304 302 302 302 300 301 303 303 304 303 303 303 303 302 302 302 303 301 299 296 297 293 294 293
304 305 305 304 293 291 290 290 290 291 291 291 299 295 294 294 293 296 309 310 313 314 315 315 315 314 315 315 314 314 315 316 316 315 316 318 318 317 314 313 314 313 310 306 306 308 307 306 306 304 302 303 300 301 300 298 299 302 301 302 303 303 303 302 301 302 302 301 302 294 293 293 293 293
303 303 303 300 292 290 290 289 289 290 290 295 293 291 291 291 292 302 305 307 308 308 310 311 312 313 313 314 314 314 316 316 316 316 316 315 314 312 311 309 307 307 306 304 304 306 306 305 304 304 303 301 299 298 297 300 300 300 299 302 302 302 302 301 300 300 300 301 301 301 300 300 301 299
303 297 291 290 290 290 290 289 288 289 289 288 290 290 290 292 303 305 307 308 309 308 308 309 311 312 313 314 314 315 316 315 314 312 310 310 310 309 308 306 305 304 304 304 304 303 304 304 303 303 301 300 297 298 297 297 299 299 300 299 298 301 301 302 301 299 299 299 299 299 299 299 298 298
291 290 290 289 289 289 292 299 304 304 305 293 289 289 291 304 305 307 308 309 308 307 307 307 308 310 311 312 313 314 314 310 308 308 307 306 304 304 302 301 301 302 302 302 303 302 303 302 302 302 299 299 298 298 299 298 298 299 298 297 298 298 299 300 299 299 298 298 298 298 300 299 298 298
300 300 297 298 294 294 291 291 292 294 296 300 304 306 305 306 308 309 308 308 308 308 309 308 309 309 311 313 312 310 309 308 308 308 305 304 302 302 302 300 298 299 300 302 301 301 301 301 302 301 298 299 300 299 300 300 297 298 298 299 299 294 298 300 299 298 298 298 298 298 299 299 298 299
300 300 295 297 303 305 306 307 307 306 306 304 303 306 307 307 309 304 300 300 307 309 310 311 311 312 311 309 310 309 307 306 305 305 302 302 300 300 300 297 296 297 298 299 299 298 296 301 301 301 301 300 299 300 300 299 297 297 298 298 296 297 297 297 297 298 298 298 297 297 297 298 297 298
299 301 300 300 301 301 298 299 301 302 303 302 303 305 306 307 307 307 307 305 305 306 307 307 308 305 309 308 308 306 305 304 303 304 303 302 300 300 302 299 298 296 295 295 297 298 299 300 301 301 301 301 300 299 297 296 297 298 297 297 296 295 296 297 297 297 298 297 296 296 296 297 298 297
295 296 298 299 299 299 299 299 298 299 300 299 299 299 297 302 304 304 304 305 305 304 303 303 304 303 302 302 301 302 302 301 301 300 297 301 299 297 297 297 298 298 296 296 296 296 298 299 299 298 299 299 300 299 298 297 296 298 296 296 295 295 296 297 296 297 297 296 296 294 295 295 296 297
296 297 296 297 298 298 299 297 297 299 298 298 299 298 300 300 301 299 302 303 301 300 300 300 301 301 300 299 299 299 298 298 297 296 296 296 296 295 296 296 296 294 296 296 295 298 298 298 298 297 296 296 296 298 297 299 298 297 296 295 296 295 295 296 295 296 297 297 296 293 291 295 295 296
296 297 297 297 297 298 298 298 298 299 298 299 299 299 298 299 300 299 300 300 302 301 300 300 299 299 298 298 295 294 294 293 294 294 292 293 293 294 295 296 295 298 298 297 297 298 298 298 298 296 293 293 293 291 292 294 295 298 294 292 295 295 295 296 296 296 296 295 295 294 291 290 294 295
297 298 297 298 299 298 297 298 298 297 299 299 299 298 298 298 299 301 301 298 301 299 298 297 298 298 297 295 293 292 291 291 291 291 291 293 294 294 291 289 290 295 295 297 298 297 298 297 297 296 295 293 292 291 292 292 291 294 299 294 292 295 295 295 295 294 295 296 296 295 292 291 291 295
296 297 297 297 298 298 298 298 298 297 297 297 298 298 299 300 301 301 302 301 299 298 298 298 297 295 295 292 292 292 292 292 292 291 290 291 291 291 291 289 291 295 297 296 296 296 297 296 296 295 295 293 292 292 290 292 292 293 293 296 292 292 294 293 293 293 293 296 296 296 295 292 292 293
299 297 297 297 297 297 297 297 297 297 298 298 298 297 296 299 299 299 298 297 298 298 297 297 296 294 293 293 292 292 291 291 291 291 290 290 292 292 291 290 290 293 293 291 295 295 295 295 296 296 296 293 292 293 294 293 293 294 292 290 295 293 294 292 293 294 293 292 294 296 293 296 294 288
298 297 298 297 298 298 298 299 297 299 297 298 297 299 298 296 297 296 297 295 295 294 294 293 292 292 292 292 290 291 291 290 290 290 290 290 290 291 291 291 291 291 290 290 290 293 294 295 296 295 295 295 292 293 294 294 294 295 294 291 289 292 294 293 293 293 292 294 295 292 292 292 291 293
297 297 298 298 298 298 297 297 298 297 297 297 297 295 297 298 297 294 294 293 292 293 292 291 290 289 290 290 290 290 289 289 289 289 289 289 289 289 289 289 291 291 291 289 290 291 292 295 292 285 293 294 293 293 293 291 290 291 292 294 289 287 288 291 297 295 292 294 294 292 291 290 290 290
296 296 297 297 297 297 297 297 297 295 295 296 295 296 296 294 294 290 292 290 290 289 290 290 290 290 290 290 290 289 289 289 289 289 289 289 288 288 288 289 289 290 290 289 290 291 295 296 293 294 293 292 292 291 290 290 290 291 292 294 294 290 288 288 288 289 295 294 293 291 291 291 291 289
294 295 295 295 296 296 296 295 296 295 294 296 295 294 295 293 293 292 291 290 289 289 289 289 289 289 289 289 290 290 289 288 288 288 288 288 288 288 288 289 290 290 290 290 292 292 292 293 295 293 293 292 292 292 290 290 290 291 291 292 293 293 293 288 288 288 288 288 288 290 292 291 290 288
294 294 294 295 295 295 295 295 295 295 294 293 293 293 293 292 290 290 290 289 289 287 287 288 288 288 288 289 289 290 289 289 289 288 288 288 288 289 289 289 289 290 291 291 291 291 291 291 292 292 292 292 292 291 290 290 291 291 292 292 292 293 293 293 293 289 288 288 288 287 287 286 287 286
293 293 294 293 292 293 293 294 293 294 293 293 291 291 290 291 291 291 290 289 288 288 288 288 287 287 287 288 289 288 288 288 289 289 289 289 289 289 289 289 289 289 290 291 290 290 291 291 292 293 292 292 291 291 291 291 291 291 291 291 291 292 293 293 292 292 292 293 291 287 287 287 287 287
Wind_Speed
7 7 8 8 8 6 7 6 6 5 3 5 6 6 6 5 6 7 7 5 7 7 7 6 6 7 7 6 7 8 8 9 8 7 7 7 7 6 5 5 5 5 5 5 5 4 5 5 4 4 4 4 4 5 4 4 4 4 4 5 6 6 6 7 5 4 6 6 7 7 7 7 8 9
5 5 6 7 7 7 6 5 6 8 7 7 7 6 5 5 6 6 7 6 5 7 5 5 7 7 8 7 8 7 7 12 10 6 7 7 6 8 5 5 4 4 4 4 4 4 3 3 2 2 2 2 1 2 2 2 2 2 2 3 4 5 5 5 5 3 3 3 4 5 6 7 7 7
6 6 7 7 6 6 6 6 6 6 7 6 6 4 3 3 4 5 6 7 5 5 6 4 7 8 10 8 8 6 6 11 8 5 7 7 13 10 7 7 6 5 4 4 4 3 3 2 1 1 2 1 2 1 1 1 2 1 1 1 2 3 3 4 5 5 5 5 6 7 7 8 8 7
6 7 7 8 7 7 7 7 7 7 7 6 6 5 4 5 3 5 5 6 7 4 6 4 6 9 8 9 9 8 6 10 10 6 7 9 13 8 7 9 8 7 6 6 5 5 4 3 3 3 3 3 3 2 1 0 1 1 1 1 1 2 2 3 4 5 6 6 6 7 8 8 8 8
6 7 7 8 7 7 7 8 7 8 8 7 6 6 5 5 5 4 4 7 7 5 3 5 5 8 9 9 10 9 8 9 9 9 8 9 8 9 8 9 11 10 9 7 6 5 4 4 4 5 5 5 5 4 3 2 2 1 1 1 1 2 2 3 4 5 7 7 6 6 7 7 8 8
4 5 6 7 7 7 7 8 9 8 8 8 8 7 6 6 6 4 4 4 7 7 5 5 6 7 9 8 9 9 9 9 10 11 8 8 9 9 7 8 9 14 10 8 7 5 5 5 5 6 7 6 6 6 6 5 4 4 4 3 2 1 2 2 3 4 6 7 7 7 7 7 8 8
5 5 4 6 6 5 6 7 7 8 8 8 7 8 6 6 6 6 4 4 6 7 7 6 6 7 8 8 9 10 9 9 10 11 10 9 8 8 7 7 5 17 12 10 8 7 7 6 6 7 7 8 7 7 7 7 7 7 6 5 5 4 4 4 4 4 5 6 6 7 7 8 8 9
5 4 5 5 6 6 7 7 7 7 6 6 6 7 6 5 6 4 4 3 3 6 6 8 7 7 7 9 8 9 8 9 10 9 9 9 9 8 8 8 6 12 13 11 9 8 8 7 7 7 8 8 8 8 8 8 8 7 7 6 5 5 4 4 4 5 6 6 7 7 7 8 9 9
4 5 4 4 6 7 7 8 7 7 8 7 6 6 6 6 5 4 4 5 5 4 5 7 6 6 8 8 8 8 9 9 10 10 9 9 9 9 8 7 7 12 9 10 9 9 8 8 8 9 9 9 9 8 8 8 8 8 7 7 6 5 5 4 6 6 6 7 7 7 7 8 10 10
3 4 5 4 4 5 6 7 6 7 8 6 6 6 5 5 5 4 5 5 6 5 6 5 7 7 6 7 8 8 8 8 8 9 10 9 9 8 8 7 6 7 6 6 6 5 7 7 8 10 10 10 9 9 8 8 8 7 7 6 6 5 5 5 4 4 4 4 5 6 7 8 10 11
3 3 4 4 4 5 4 5 6 7 7 7 6 5 5 6 3 4 5 6 7 7 7 6 6 7 7 7 7 8 9 9 9 8 8 9 9 8 8 8 7 5 7 7 6 4 5 11 8 9 10 10 9 9 9 8 7 7 6 6 5 4 4 3 3 3 4 5 5 6 7 8 8 9
3 3 4 4 4 4 5 5 6 6 7 5 6 5 4 4 4 5 5 5 6 6 6 7 7 7 7 7 7 7 8 9 9 9 8 9 9 9 9 10 8 7 7 8 7 8 11 8 9 9 8 10 10 11 10 8 8 6 6 4 4 3 3 3 4 3 4 5 6 7 8 8 8 8
4 4 4 4 4 6 6 8 8 7 6 1 5 5 4 5 6 6 5 5 5 5 6 6 6 7 7 7 7 8 7 9 9 8 9 9 9 9 8 9 9 9 9 8 9 9 9 9 9 8 8 8 10 10 8 9 8 7 5 5 3 2 2 2 2 3 3 5 6 6 8 8 9 9
4 4 4 5 8 6 3 3 3 2 1 5 5 3 2 5 6 6 6 6 6 6 6 7 6 7 7 7 7 8 9 8 9 9 9 10 9 10 8 7 8 8 9 8 9 8 9 9 8 9 8 9 10 6 8 7 8 8 7 4 3 2 1 0 1 2 3 4 5 5 7 8 9 9
5 4 4 4 5 4 4 3 4 1 2 2 4 6 7 7 5 5 6 6 6 6 6 6 7 7 8 7 8 8 9 9 9 9 8 9 10 10 10 10 7 8 8 8 8 8 8 8 8 8 7 9 7 8 5 14 12 9 5 4 2 1 0 1 1 2 3 4 5 6 7 8 8 8
5 5 4 3 2 2 2 3 4 6 6 3 1 2 5 7 9 6 5 6 6 7 7 8 8 8 8 8 8 8 8 9 9 9 10 10 11 12 11 10 11 6 9 7 8 8 7 8 8 7 7 6 7 2 12 12 11 7 5 4 2 2 1 1 3 3 4 4 5 7 8 8 9 8
1 1 2 2 2 2 5 4 4 3 4 5 3 2 4 7 8 9 10 7 6 7 8 7 9 9 8 8 9 8 8 6 9 9 9 10 10 11 11 11 11 4 9 8 8 9 7 8 8 8 7 6 5 8 10 11 10 7 6 4 4 3 3 3 3 4 4 5 5 6 8 8 8 8
1 1 2 3 3 3 3 3 4 4 4 3 5 5 6 7 8 8 10 12 12 8 7 9 9 9 8 9 7 8 7 7 8 8 10 10 10 10 11 5 3 7 7 9 7 8 7 7 7 8 7 7 6 6 12 13 10 8 6 5 4 4 4 4 4 5 5 5 6 6 7 8 8 9
2 1 1 2 3 2 3 6 9 5 4 5 5 6 7 8 8 9 9 9 8 8 8 10 11 10 10 10 8 8 7 9 9 8 9 7 7 7 3 2 4 4 6 6 6 8 7 6 7 8 7 7 6 4 14 15 12 10 8 5 5 5 5 5 5 6 5 5 5 6 6 7 8 9
1 1 2 2 2 1 2 9 10 6 6 6 7 8 8 9 9 9 8 7 8 7 7 8 9 6 5 6 5 3 5 6 6 5 5 4 5 7 7 9 7 7 8 9 8 7 9 7 8 7 7 6 6 6 9 14 14 11 8 7 7 7 6 6 6 6 5 5 5 6 6 7 9 10
1 2 5 4 4 3 7 9 9 9 7 6 7 8 10 9 9 10 5 6 5 7 7 7 5 5 7 7 5 5 6 6 6 7 7 8 8 9 11 11 9 9 8 9 10 9 10 8 8 8 7 7 7 6 5 10 11 11 9 9 9 9 8 7 7 5 5 5 5 5 6 8 9 11
1 6 5 5 2 3 6 9 9 10 6 6 8 9 9 11 9 9 8 4 5 3 4 6 6 6 7 6 6 6 8 8 7 10 11 9 8 11 10 11 10 9 8 8 10 9 9 8 7 8 6 6 6 6 6 8 9 11 11 14 13 12 10 9 6 6 5 6 5 5 7 7 9 10
3 2 6 7 7 6 7 9 10 9 8 6 8 9 11 10 13 12 10 9 7 6 7 7 7 8 8 7 8 8 12 10 9 10 11 9 10 11 10 11 9 11 10 8 12 9 8 7 7 7 6 7 7 6 5 6 7 9 8 9 11 13 10 9 9 9 9 8 8 7 6 7 8 8
3 3 2 7 8 10 9 8 9 10 8 6 8 8 10 10 11 7 9 9 8 9 7 7 8 9 8 9 10 10 9 9 10 12 11 11 11 11 11 11 11 10 9 8 12 9 7 7 7 7 6 6 4 7 5 5 6 5 3 4 5 13 12 12 12 15 12 12 11 10 8 7 6 7
4 3 3 3 9 8 6 4 4 5 8 7 6 8 9 9 9 11 9 10 3 8 10 11 10 9 10 10 9 9 9 9 10 11 11 11 11 11 11 10 10 11 3 8 11 9 6 5 6 5 6 6 6 4 5 4 4 4 3 4 5 5 7 6 5 5 15 14 12 9 9 8 8 6
4 4 3 3 8 11 10 13 13 9 6 7 6 9 12 14 15 10 9 9 10 12 12 10 10 10 10 10 10 9 9 9 9 9 9 10 11 10 9 9 9 11 6 7 7 7 6 6 7 7 6 5 5 5 5 4 3 3 3 5 5 4 3 5 5 5 3 8 8 9 9 12 8 8
5 4 5 2 8 10 9 9 11 12 14 10 9 12 12 12 11 9 8 8 9 10 11 12 12 12 13 11 12 12 11 9 9 8 8 9 9 5 1 2 2 3 6 9 8 6 6 5 5 5 5 4 4 4 4 4 4 4 5 6 5 4 5 4 4 5 4 4 3 9 4 10 10 11
5 5 4 6 11 11 12 12 12 13 13 10 12 12 11 11 9 7 8 8 9 10 11 12 13 14 14 14 13 13 11 10 8 8 7 7 6 5 4 5 6 7 8 9 8 4 4 3 4 2 2 4 4 5 4 3 4 4 5 3 1 4 4 4 4 4 5 4 5 4 5 4 3 6
5 4 6 9 12 13 13 15 15 13 16 18 15 14 13 10 7 8 9 9 9 11 12 12 12 14 14 15 14 11 12 8 7 7 6 6 6 6 7 7 7 7 5 5 5 4 4 3 4 4 3 3 4 4 4 5 3 3 2 1 4 3 3 3 4 4 4 4 4 4 4 4 5 5
7 8 10 13 15 15 13 10 7 7 5 9 15 16 14 10 9 9 9 10 10 11 11 12 13 13 13 13 14 11 5 8 8 8 8 8 8 8 8 8 6 6 6 6 5 5 4 4 3 3 3 3 4 4 4 4 5 4 3 4 3 2 4 4 3 3 4 4 4 4 4 3 5 5
6 6 8 9 12 13 15 15 13 12 11 11 10 9 10 9 8 8 9 9 9 10 10 11 11 12 11 12 6 8 8 9 8 9 10 9 9 9 9 8 8 7 6 6 5 4 5 4 4 4 4 4 4 4 4 3 5 4 4 4 2 4 2 2 3 3 3 3 4 4 4 4 4 3
9 9 10 11 9 7 7 6 5 5 6 7 8 8 8 8 8 7 5 7 9 10 10 11 11 11 11 11 7 8 8 8 7 8 8 9 9 9 9 7 7 8 7 7 6 5 4 5 4 4 3 2 3 4 4 4 4 4 4 3 3 3 4 4 4 3 2 4 4 4 3 4 4 3
8 7 7 6 6 6 4 4 6 6 7 5 8 9 8 8 8 8 9 11 10 9 9 11 11 9 11 9 5 5 6 7 7 8 8 8 10 9 8 8 9 8 9 8 7 6 5 5 3 2 3 3 3 2 3 4 5 4 3 3 3 3 4 3 3 3 2 4 4 3 4 4 2 2
6 5 4 4 4 4 4 5 6 6 5 6 6 6 8 8 9 9 9 10 10 9 8 8 8 8 4 0 2 3 5 3 4 4 3 3 1 3 5 6 5 6 7 8 7 6 6 6 6 4 2 1 1 3 4 5 4 3 2 2 3 4 3 3 3 3 3 3 3 4 4 3 1 1
5 5 5 5 5 5 7 6 7 7 7 7 7 7 7 7 9 8 9 9 7 7 7 7 7 8 4 4 4 5 5 6 6 6 6 6 4 5 3 3 2 4 6 7 8 8 7 7 6 6 5 5 5 5 6 5 4 4 2 3 4 4 4 3 3 4 3 3 3 3 3 3 2 1
5 4 5 6 6 7 7 7 7 7 7 7 8 8 8 8 8 8 8 9 10 8 8 8 8 8 6 4 3 4 4 5 5 6 5 3 3 2 1 3 3 2 3 4 5 6 6 6 6 7 5 5 5 5 8 2 4 3 3 3 4 3 4 3 4 3 4 3 3 2 3 3 3 2
4 4 6 6 8 7 7 7 7 7 9 7 8 8 8 9 8 10 9 5 9 8 9 7 8 8 6 4 4 4 5 6 7 5 5 6 6 6 4 4 3 2 2 1 3 3 3 4 4 5 5 4 4 4 5 6 3 5 3 3 3 4 4 3 3 2 2 2 3 3 2 2 2 3
4 4 7 7 8 8 9 7 7 7 7 7 7 7 10 10 11 11 10 10 8 8 8 7 7 7 5 4 5 6 6 6 7 7 6 6 7 6 5 5 4 2 0 1 0 1 3 3 3 4 4 3 3 3 6 7 5 2 3 2 3 2 2 2 3 1 1 2 3 3 3 2 1 3
6 7 8 8 8 8 8 7 6 6 9 8 8 8 8 9 10 9 8 8 9 8 8 8 6 6 4 4 5 6 7 8 8 7 7 5 6 5 5 5 5 3 3 1 1 2 3 4 4 3 3 2 3 2 1 1 1 5 5 3 3 3 3 2 1 0 1 1 2 3 2 1 5 10
7 7 7 8 8 8 8 8 7 8 7 7 8 9 8 8 8 8 8 7 8 8 7 6 3 3 2 3 3 4 5 5 6 6 6 6 5 5 5 4 4 4 4 3 2 4 4 5 3 2 2 2 5 6 1 1 1 0 3 3 6 5 3 1 1 1 0 1 3 2 2 1 2 4
8 8 8 8 8 8 8 8 8 6 7 7 7 7 8 8 7 6 5 5 5 6 4 1 2 2 3 3 4 6 6 6 7 6 6 6 5 4 4 4 3 3 3 3 2 3 4 1 7 4 5 1 2 1 2 2 2 2 3 4 6 4 2 4 3 2 1 2 3 2 2 2 2 2
8 7 8 7 7 7 8 8 8 6 7 7 5 5 6 4 3 5 4 3 3 4 2 2 3 4 5 5 6 6 7 7 7 7 6 6 5 4 3 2 2 2 2 3 3 3 2 2 3 1 1 2 2 3 3 2 2 3 3 3 5 6 5 4 3 5 6 5 4 3 2 2 1 2
8 7 8 8 8 8 7 7 7 6 5 5 4 4 4 3 3 3 3 3 4 5 5 5 5 5 6 5 5 5 6 7 6 6 6 5 5 4 3 2 2 3 3 2 2 1 1 2 3 3 3 3 3 3 2 2 2 2 3 3 4 4 3 4 4 3 4 5 5 4 3 3 3 2
8 8 9 8 8 8 8 8 7 7 5 3 3 3 3 3 3 4 4 5 5 6 5 5 5 5 5 5 5 5 5 6 6 6 5 3 3 2 2 2 1 1 0 1 2 2 2 2 2 2 3 3 2 3 2 2 3 3 3 2 2 3 5 5 3 4 6 9 11 9 7 5 3 3
8 8 9 8 7 6 6 7 5 6 4 3 3 2 3 4 4 5 6 6 7 5 5 5 5 5 5 5 4 5 4 5 5 4 4 4 3 3 3 2 2 2 2 1 2 2 2 2 2 2 2 1 2 2 2 2 1 2 2 2 2 3 2 2 3 4 4 4 9 11 8 6 5 4
Wind_Direction
197 209 169 181 189 181 212 206 151 127 172 154 163 175 158 167 155 164 158 160 144 167 159 162 154 158 155 156 144 159 160 143 184 153 147 145 145 123 126 118 117 123 122 115 114 108 99 93 88 80 66 61 50 53 55 47 46 43 40 53 49 41 33 20 10 30 30 34 37 36 37 34 30 28
186 182 166 216 184 169 177 167 156 150 185 169 167 194 160 177 166 166 162 147 164 151 174 171 154 167 161 163 158 180 157 146 223 163 158 162 143 133 149 142 145 148 142 135 132 130 121 102 88 74 73 73 65 44 23 19 12 5 41 38 41 53 37 16 358 29 30 19 24 26 20 23 22 20
181 177 184 191 169 166 176 154 170 161 164 158 167 174 146 145 142 173 152 151 147 153 170 164 152 166 166 173 169 183 165 163 215 193 162 176 123 156 160 172 169 183 174 155 152 153 161 157 149 119 88 103 106 82 330 321 314 301 8 21 16 19 28 13 358 359 11 8 5 14 10 4 4 3
181 178 182 187 172 171 173 166 163 166 160 159 166 160 146 132 153 178 166 152 143 168 163 170 158 167 170 177 180 180 185 154 203 192 198 124 140 189 172 183 188 185 190 175 178 182 179 189 179 151 145 131 117 96 109 329 309 335 318 3 360 332 340 358 354 351 353 360 3 7 2 356 350 350
184 179 181 174 172 173 179 166 165 170 159 161 175 157 154 140 159 191 173 155 140 153 174 170 179 167 176 187 190 184 189 167 195 226 195 157 185 203 198 177 184 190 191 182 179 192 198 187 169 141 125 116 106 101 96 91 94 51 59 38 7 331 330 338 360 347 344 346 357 353 346 342 339 337
174 170 177 168 164 179 177 170 171 165 166 174 172 159 172 160 160 204 190 151 146 161 176 183 186 169 192 200 193 192 195 184 193 202 209 188 200 213 218 193 175 183 191 178 177 191 194 175 153 136 116 101 101 95 91 88 81 80 78 75 38 27 333 352 342 336 335 337 341 341 335 327 323 319
153 162 169 161 163 176 185 174 184 164 180 176 170 164 178 175 170 182 221 171 169 167 176 191 191 181 191 220 192 201 193 198 200 206 208 209 202 222 218 232 183 171 176 171 175 185 173 160 147 127 113 108 103 101 94 88 87 82 78 69 62 48 38 28 7 356 344 342 335 330 327 322 318 313
152 164 166 168 172 182 187 184 180 178 177 191 171 173 171 188 181 189 209 245 254 173 182 188 210 181 192 209 223 199 201 197 208 216 217 213 216 213 216 223 235 160 159 161 170 170 163 155 140 127 121 115 111 108 103 99 97 94 90 87 82 65 59 40 31 13 5 1 352 351 350 336 331 332
138 137 151 151 170 185 191 187 188 180 184 190 182 183 178 188 173 194 211 219 229 237 222 181 222 200 193 205 219 211 205 199 211 217 226 226 221 220 223 220 92 116 136 144 152 155 153 150 141 133 126 122 118 116 114 110 107 106 102 99 89 80 63 51 43 39 27 23 15 9 3 352 348 347
120 139 142 146 152 169 184 187 189 191 191 194 201 188 205 197 175 199 210 229 244 242 235 225 195 217 208 208 210 215 213 217 211 217 221 228 232 231 219 221 172 168 164 175 152 133 151 147 144 137 131 128 127 125 123 120 116 107 104 95 88 77 70 56 50 43 31 22 13 1 359 353 351 347
138 152 139 144 154 159 163 164 177 187 184 196 206 197 201 237 203 197 229 235 225 229 243 239 224 206 213 226 219 214 215 220 227 225 222 228 226 222 223 221 211 187 169 114 92 154 158 149 156 137 137 136 136 135 131 126 120 114 106 104 96 91 81 74 57 36 19 19 8 3 355 348 345 340
163 152 152 142 131 139 153 155 157 173 179 184 191 199 209 228 234 229 231 238 245 228 227 239 230 225 225 206 228 235 214 223 227 231 237 232 228 226 216 227 210 195 175 180 169 124 118 120 116 143 141 150 148 141 136 135 129 133 130 130 135 121 107 84 59 37 20 7 1 357 349 340 336 333
164 171 148 163 116 65 50 35 29 34 17 216 191 194 208 218 217 226 235 223 227 232 228 226 235 237 229 223 213 229 223 220 234 230 234 246 252 256 219 218 214 200 194 200 186 180 184 178 177 183 184 162 166 171 183 141 152 149 158 159 139 120 91 70 43 28 4 356 352 345 341 332 329 328
167 166 163 86 70 80 78 81 67 77 352 336 340 332 233 216 225 227 237 236 227 231 226 225 227 228 232 232 226 232 235 235 243 247 238 238 243 255 253 232 210 203 208 205 201 194 188 198 193 207 202 159 190 175 197 176 146 148 162 155 148 160 128 88 38 20 359 346 337 334 324 326 323 322
179 179 179 144 133 151 155 158 135 126 17 306 305 318 331 333 320 273 248 241 251 247 243 240 234 239 245 246 248 242 246 240 239 249 250 251 258 260 253 254 214 205 217 212 215 209 186 202 212 212 214 170 199 206 143 113 126 141 157 166 186 189 211 307 309 322 334 334 333 327 323 321 320 315
179 184 168 187 141 214 32 335 169 170 188 202 311 334 331 319 305 293 286 284 261 247 254 256 253 255 251 257 257 254 250 258 254 248 256 260 265 265 258 255 262 216 197 213 220 221 175 208 229 226 218 186 202 148 120 133 130 154 158 180 192 229 221 297 299 304 318 324 321 317 314 312 314 314
54 104 150 163 229 101 118 231 251 264 185 177 186 247 274 269 258 270 273 264 269 292 269 255 256 253 257 256 258 271 272 272 270 270 260 256 258 262 264 265 267 135 185 206 220 229 191 201 218 226 213 205 177 120 140 141 155 159 176 183 214 233 258 275 289 295 299 303 297 299 300 302 306 307
216 232 241 237 211 197 190 240 239 250 267 206 197 213 229 235 217 225 241 254 263 257 264 269 262 254 253 257 258 263 255 240 247 254 262 259 258 251 262 276 108 149 191 201 219 239 208 192 217 224 217 202 196 203 147 159 163 174 177 186 213 239 252 257 260 272 282 285 292 291 294 297 300 302
30 338 325 297 281 278 275 35 25 337 293 268 250 245 238 239 244 233 224 224 230 232 236 245 257 263 260 258 252 242 219 233 246 258 261 262 262 268 241 199 210 187 196 215 239 248 254 174 224 230 226 195 201 204 145 164 170 173 180 196 215 232 239 241 244 253 260 276 279 286 290 292 291 292
17 15 326 307 293 293 47 53 42 10 324 290 269 255 249 250 247 244 232 219 220 248 256 249 256 282 5 5 339 301 243 235 239 234 240 230 230 236 234 243 213 216 200 199 206 219 238 182 225 227 222 195 215 194 166 169 170 172 183 193 212 225 226 229 236 235 255 272 276 279 284 284 288 288
16 37 12 345 332 302 70 23 30 17 328 280 268 263 261 258 254 254 218 161 198 221 239 263 288 297 294 296 302 305 290 269 264 239 232 230 225 234 251 256 243 225 193 186 193 211 235 210 202 235 218 199 219 230 198 155 171 172 180 203 209 214 213 218 223 237 259 269 277 282 279 281 282 285
272 93 68 351 345 5 49 27 24 11 330 279 270 269 272 263 261 255 236 185 212 193 285 283 283 273 262 262 271 264 260 248 253 223 239 246 241 249 248 260 256 249 213 200 193 218 231 237 195 227 221 203 219 228 242 152 162 178 198 206 203 200 202 205 211 236 245 256 264 266 278 275 285 276
290 139 132 75 58 48 43 32 19 10 351 288 277 272 269 270 269 265 272 252 222 209 220 226 223 232 219 225 230 222 212 225 237 234 243 250 251 255 250 251 248 253 237 202 182 211 219 201 190 212 219 235 223 191 202 173 184 194 212 192 200 195 191 197 215 215 222 229 219 232 238 255 273 282
279 280 147 104 90 82 57 37 17 351 347 320 300 294 273 269 267 307 290 295 297 268 236 243 231 233 235 224 218 222 190 203 217 227 235 243 251 251 251 250 246 253 256 158 174 207 220 194 209 191 227 249 228 165 188 202 205 215 234 260 270 171 196 201 215 210 214 213 220 207 210 212 265 295
284 270 272 136 104 90 70 24 349 320 315 309 291 277 272 281 336 338 300 286 245 266 269 266 262 253 249 243 235 225 216 208 204 213 226 236 240 244 246 249 251 252 230 135 176 203 205 182 206 183 211 231 252 240 185 188 200 225 243 259 261 200 204 228 277 227 197 214 208 200 205 214 210 267
285 296 299 318 50 29 4 335 321 306 272 270 275 264 274 298 308 314 308 299 287 273 264 263 256 251 246 243 243 240 231 222 209 210 214 220 229 235 243 245 247 242 166 159 173 196 184 189 210 206 213 222 232 228 240 226 208 213 207 232 240 239 235 264 248 275 231 193 187 198 188 197 211 221
287 292 297 70 38 349 318 296 289 290 291 282 258 258 267 271 286 291 277 279 273 267 266 262 259 256 255 249 250 249 241 226 205 202 211 211 214 201 133 15 279 286 118 146 179 195 201 201 200 216 222 222 236 232 231 248 238 178 218 223 214 224 241 247 271 281 289 289 288 144 219 228 226 222
281 267 279 327 330 306 289 275 262 259 258 254 267 278 280 282 283 272 266 253 249 250 251 253 252 253 253 256 251 248 242 234 200 196 190 187 186 171 155 115 94 106 129 143 161 174 194 185 153 182 250 241 237 235 253 229 221 222 244 235 223 260 254 279 283 277 274 277 290 277 299 313 232 226
274 335 312 274 264 262 261 260 257 247 238 238 241 244 253 255 255 243 241 242 238 240 241 241 246 250 250 253 255 251 246 222 165 159 151 161 155 140 116 97 93 99 108 125 135 147 156 167 157 145 189 211 229 238 242 259 272 256 247 296 268 249 276 278 271 277 286 295 287 281 293 300 299 307
284 265 253 254 251 250 243 246 257 271 277 206 214 221 218 235 236 234 239 242 243 246 250 247 248 251 255 255 256 252 175 155 189 180 170 160 156 146 136 132 126 114 122 139 145 138 135 142 140 158 181 196 221 233 240 253 243 244 211 238 272 312 244 232 246 278 280 280 284 287 284 283 295 307
252 259 265 285 284 277 275 267 260 255 251 252 239 227 213 221 241 240 239 247 254 257 259 259 257 259 254 256 242 153 184 204 199 190 178 179 167 165 165 154 142 141 140 137 138 141 142 143 150 168 200 200 198 219 243 250 263 267 256 233 233 267 312 312 283 268 287 283 280 267 262 272 285 292
312 302 287 268 265 274 271 270 287 292 301 301 301 297 296 286 278 276 306 315 285 276 274 272 269 265 267 259 193 203 193 207 199 190 189 182 165 170 164 158 155 150 148 144 133 121 137 147 164 173 207 219 215 204 204 226 243 254 265 258 265 261 264 264 275 265 236 274 274 276 294 296 302 331
299 290 290 299 295 297 301 303 299 303 304 305 302 297 292 289 286 281 273 271 271 268 265 262 265 270 266 251 220 194 203 198 197 190 187 176 162 168 164 160 165 165 159 157 151 155 163 149 154 170 177 190 226 255 260 248 234 225 246 271 277 265 247 250 264 271 279 262 266 286 292 306 317 328
290 288 292 294 302 308 308 311 307 304 303 305 302 299 295 288 281 283 284 278 274 271 270 275 273 261 262 108 204 191 203 152 103 48 26 64 91 144 161 169 152 158 162 152 147 146 153 157 153 161 185 226 266 245 248 246 252 235 237 248 249 250 249 253 251 257 260 267 284 288 300 298 303 295
282 300 305 305 302 304 309 308 306 305 303 302 305 302 300 295 292 285 277 281 282 276 269 261 258 257 236 212 181 179 179 143 129 116 95 81 47 54 49 91 144 178 168 159 154 157 165 168 169 165 175 188 200 216 217 267 260 240 201 228 233 245 247 233 246 247 252 272 281 296 300 297 309 349
291 294 299 308 314 315 308 306 308 305 305 306 303 303 300 299 298 295 287 285 287 291 286 275 264 254 241 207 166 144 135 122 116 115 112 100 92 107 233 219 140 210 219 162 154 150 173 175 186 196 195 201 207 212 181 187 305 276 227 225 235 248 249 236 238 244 248 268 286 292 299 314 312 316
299 311 313 310 308 307 304 302 305 307 306 301 300 300 302 300 296 291 294 308 289 284 282 285 272 253 238 186 154 148 142 140 137 129 119 117 113 111 104 69 54 340 291 131 136 141 190 191 206 226 216 218 220 237 128 151 206 315 310 243 229 234 236 235 227 238 228 268 292 289 305 290 292 312
326 318 318 314 312 309 309 308 307 306 305 307 306 305 302 300 300 300 302 297 294 292 287 276 266 247 221 157 152 152 152 143 135 131 127 130 134 133 126 126 125 141 181 56 293 167 223 214 212 234 247 244 235 215 147 160 155 182 13 284 235 218 221 221 236 243 290 293 288 308 300 285 318 331
333 330 322 320 317 314 311 310 307 303 303 304 304 301 299 300 303 304 306 304 302 299 294 286 268 242 201 163 162 155 149 143 138 132 127 124 125 129 133 135 141 130 111 111 293 251 242 237 228 232 245 252 257 290 332 236 241 128 160 221 265 221 205 227 244 230 279 290 295 295 273 250 83 92
338 331 327 323 322 322 322 319 316 314 311 303 297 300 304 304 303 304 308 309 309 306 297 290 264 211 159 145 123 102 109 103 102 107 111 116 122 124 130 138 145 145 149 172 192 222 229 234 246 311 283 227 43 23 342 302 288 192 146 169 238 278 321 265 252 328 249 281 305 295 299 295 241 175
345 337 337 334 329 326 322 319 319 320 309 304 301 306 303 307 321 336 345 347 328 312 303 303 83 80 101 105 104 111 105 99 92 92 93 97 98 101 105 137 146 165 164 153 192 221 228 147 58 25 357 48 53 216 223 215 204 191 206 161 182 234 277 302 295 271 289 316 287 285 295 303 308 292
346 342 340 341 336 329 324 322 319 320 318 312 310 313 320 324 358 344 336 27 23 36 49 68 50 58 70 73 83 88 98 104 106 103 105 106 100 93 100 143 140 159 179 190 189 212 205 60 72 29 197 226 209 210 218 214 199 175 191 170 160 188 210 229 291 317 325 331 320 314 313 296 295 282
353 349 342 338 334 331 335 333 331 329 324 320 325 333 328 355 5 9 21 42 49 41 45 50 40 44 53 63 70 84 94 96 94 95 98 105 112 126 145 168 176 189 212 195 164 205 202 224 206 205 207 217 215 234 235 184 219 187 179 199 176 177 171 182 218 255 293 286 284 291 331 342 329 323
354 349 349 350 349 346 344 339 342 334 335 349 10 9 15 34 44 50 57 64 59 51 49 46 43 41 42 47 53 68 84 95 104 106 107 110 133 143 155 143 158 132 127 150 197 190 194 217 223 237 230 220 208 216 206 196 204 197 195 182 180 179 172 156 167 198 234 250 251 250 259 271 289 340
351 351 353 354 352 352 352 347 351 353 6 17 24 43 59 69 74 72 69 63 54 43 44 42 40 39 37 36 45 54 62 82 101 111 118 127 125 119 116 134 149 148 166 173 196 206 204 213 217 227 238 204 219 226 207 232 298 177 208 193 208 219 212 194 207 202 207 217 205 207 225 227 240 263